| time (UTC) | temp C | wind direction | speed KPH | gust KPH | rain 1hr cm | rain 24hr cm | rain mn cm | humidity % | barometer mb |
| 20260506163021 | 15 | 93 | 0.0 | 0.0 | 0.00 | 3.07 | 2.11 | 73 | 1008.4 |
| 20260506161524 | 15 | 79 | 0.0 | 0.0 | 0.00 | 3.07 | 2.11 | 72 | 1008.6 |
| 20260506160017 | 15 | 136 | 0.0 | 0.0 | 0.00 | 3.07 | 2.11 | 71 | 1008.6 |
| 20260506154515 | 15 | 91 | 0.0 | 3.2 | 0.00 | 3.07 | 2.11 | 71 | 1008.6 |
| 20260506153014 | 16 | 86 | 0.0 | 1.6 | 0.00 | 3.07 | 2.11 | 69 | 1008.6 |
| 20260506151515 | 16 | 137 | 0.0 | 9.7 | 0.00 | 3.07 | 2.11 | 67 | 1008.6 |
| 20260506150017 | 17 | 187 | 0.0 | 1.6 | 0.00 | 3.07 | 2.11 | 66 | 1008.6 |
| 20260506144513 | 17 | 49 | 0.0 | 11.3 | 0.00 | 3.07 | 2.11 | 69 | 1008.5 |
| 20260506143010 | 16 | 87 | 0.0 | 3.2 | 0.00 | 3.07 | 2.11 | 71 | 1008.6 |
| 20260506141507 | 15 | 307 | 1.6 | 8.0 | 0.00 | 3.07 | 2.11 | 74 | 1008.8 |
| 20260506140006 | 16 | 118 | 0.0 | 1.6 | 0.00 | 3.07 | 2.11 | 73 | 1008.9 |
| 20260506134516 | 16 | 113 | 0.0 | 1.6 | 0.00 | 3.07 | 2.11 | 75 | 1009.1 |
| 20260506133000 | 15 | 78 | 0.0 | 0.0 | 0.00 | 3.07 | 2.11 | 76 | 1009.2 |
| 20260506131611 | 15 | 90 | 0.0 | 0.0 | 0.00 | 3.07 | 2.11 | 78 | 1009.4 |
| 20260506130056 | 14 | 327 | 0.0 | 0.0 | 0.00 | 3.07 | 2.11 | 80 | 1009.4 |
| 20260506124552 | 13 | 73 | 0.0 | 0.0 | 0.00 | 3.10 | 2.11 | 83 | 1009.3 |
| 20260506123049 | 13 | 62 | 0.0 | 3.2 | 0.00 | 3.10 | 2.11 | 87 | 1009.4 |
| 20260506121547 | 12 | 131 | 0.0 | 1.6 | 0.00 | 3.10 | 2.11 | 89 | 1009.5 |
| 20260506120043 | 12 | 80 | 0.0 | 1.6 | 0.03 | 3.10 | 2.11 | 90 | 1009.6 |
| 20260506114545 | 12 | 93 | 0.0 | 3.2 | 0.03 | 4.24 | 2.11 | 91 | 1009.7 |
| 20260506113038 | 11 | 108 | 0.0 | 8.0 | 0.03 | 4.24 | 2.11 | 91 | 1009.7 |
| 20260506111534 | 11 | 67 | 0.0 | 1.6 | 0.00 | 4.22 | 2.11 | 91 | 1009.7 |
| 20260506110034 | 11 | 67 | 0.0 | 3.2 | 0.00 | 4.22 | 2.11 | 92 | 1009.8 |
| 20260506104533 | 11 | 67 | 0.0 | 1.6 | 0.03 | 4.22 | 2.11 | 92 | 1009.9 |
| 20260506103033 | 11 | 61 | 0.0 | 3.2 | 0.05 | 4.22 | 2.11 | 92 | 1009.9 |
| 20260506101531 | 11 | 70 | 0.0 | 3.2 | 0.08 | 4.22 | 2.11 | 92 | 1009.9 |
| 20260506100033 | 11 | 106 | 0.0 | 8.0 | 0.15 | 4.22 | 2.11 | 92 | 1009.7 |
| 20260506094525 | 11 | 88 | 0.0 | 3.2 | 0.15 | 4.19 | 2.08 | 92 | 1009.7 |
| 20260506093022 | 10 | 96 | 0.0 | 6.4 | 0.20 | 4.17 | 2.03 | 92 | 1009.5 |
| 20260506091521 | 10 | 76 | 0.0 | 3.2 | 0.23 | 4.14 | 2.03 | 92 | 1009.4 |
| 20260506090018 | 10 | 45 | 0.0 | 3.2 | 0.23 | 4.09 | 1.96 | 92 | 1009.2 |
| 20260506084517 | 10 | 55 | 0.0 | 1.6 | 0.23 | 4.01 | 1.91 | 92 | 1009.0 |
| 20260506083015 | 10 | 55 | 0.0 | 3.2 | 0.23 | 3.96 | 1.83 | 92 | 1008.9 |
| 20260506081520 | 10 | 55 | 0.0 | 3.2 | 0.30 | 3.89 | 1.75 | 92 | 1008.7 |
| 20260506073011 | 10 | 57 | 0.0 | 0.0 | 0.46 | 3.71 | 1.57 | 92 | 1008.3 |
| 20260506071510 | 10 | 57 | 0.0 | 0.0 | 0.43 | 3.58 | 1.42 | 92 | 1008.2 |
| 20260506061505 | 10 | 57 | 0.0 | 0.0 | 0.36 | 3.15 | 1.02 | 92 | 1007.5 |
| 20260506050108 | 10 | 60 | 0.0 | 0.0 | 0.33 | 2.69 | 0.56 | 92 | 1006.8 |
| 20260506044601 | 10 | 50 | 0.0 | 0.0 | 0.30 | 2.67 | 0.48 | 92 | 1006.7 |
| 20260506043059 | 10 | 48 | 0.0 | 0.0 | 0.28 | 2.59 | 0.41 | 92 | 1006.7 |
| 20260506041603 | 10 | 48 | 0.0 | 0.0 | 0.25 | 2.49 | 0.33 | 92 | 1006.7 |
| 20260506040056 | 11 | 48 | 0.0 | 0.0 | 0.23 | 2.41 | 0.23 | 92 | 1006.7 |
| 20260506034559 | 10 | 48 | 0.0 | 0.0 | 0.18 | 2.39 | 0.18 | 92 | 1006.7 |
| 20260506033052 | 10 | 48 | 0.0 | 0.0 | 0.13 | 2.34 | 0.13 | 91 | 1006.8 |
| 20260506031551 | 11 | 44 | 0.0 | 0.0 | 0.05 | 2.29 | 0.05 | 92 | 1006.9 |
| 20260506030053 | 11 | 44 | 0.0 | 0.0 | 0.03 | 2.24 | 0.03 | 91 | 1006.9 |
| 20260506024559 | 11 | 44 | 0.0 | 0.0 | 0.00 | 2.44 | 0.00 | 91 | 1007.0 |
| 20260506023051 | 11 | 44 | 0.0 | 0.0 | 0.00 | 2.44 | 0.00 | 92 | 1007.0 |
| 20260506021548 | 11 | 44 | 0.0 | 0.0 | 0.00 | 2.44 | 0.00 | 92 | 1007.0 |
| 20260506020104 | 11 | 44 | 0.0 | 0.0 | 0.00 | 2.44 | 0.00 | 91 | 1007.0 |
| 20260506014557 | 11 | 44 | 0.0 | 0.0 | 0.00 | 2.54 | 0.00 | 91 | 1007.0 |
| 20260506013044 | 11 | 44 | 0.0 | 0.0 | 0.00 | 2.54 | 0.00 | 91 | 1007.2 |
| 20260506011604 | 11 | 44 | 0.0 | 0.0 | 0.00 | 2.54 | 0.00 | 91 | 1007.4 |
| 20260506010041 | 11 | 55 | 0.0 | 0.0 | 0.00 | 2.54 | 0.00 | 91 | 1007.7 |
| 20260506004557 | 11 | 23 | 0.0 | 0.0 | 0.00 | 2.62 | 0.00 | 91 | 1007.8 |
| 20260506003037 | 11 | 355 | 0.0 | 0.0 | 0.00 | 2.62 | 0.00 | 91 | 1007.9 |
| 20260506001542 | 11 | 89 | 0.0 | 0.0 | 0.00 | 2.62 | 0.00 | 91 | 1008.2 |
| 20260506000056 | 11 | 85 | 0.0 | 0.0 | 0.00 | 2.87 | 0.00 | 91 | 1008.5 |
| 20260505234542 | 11 | 62 | 0.0 | 1.6 | 0.00 | 2.87 | 0.00 | 91 | 1008.6 |
| 20260505233031 | 11 | 96 | 0.0 | 0.0 | 0.00 | 2.87 | 0.00 | 90 | 1008.6 |
| 20260505231529 | 11 | 71 | 0.0 | 1.6 | 0.00 | 2.87 | 0.00 | 90 | 1008.7 |
| 20260505230049 | 11 | 55 | 0.0 | 3.2 | 0.00 | 3.05 | 0.00 | 90 | 1008.8 |
| 20260505224536 | 11 | 105 | 0.0 | 1.6 | 0.10 | 3.05 | 0.00 | 89 | 1008.8 |
| 20260505223026 | 11 | 115 | 0.0 | 1.6 | 0.15 | 3.05 | 0.00 | 89 | 1008.8 |
| 20260505221523 | 11 | 275 | 0.0 | 1.6 | 0.23 | 3.05 | 0.00 | 89 | 1008.8 |
| 20260505220021 | 11 | 275 | 0.0 | 9.7 | 0.33 | 3.10 | 3.05 | 88 | 1009.0 |
| 20260505214523 | 11 | 270 | 0.0 | 9.7 | 0.36 | 3.00 | 2.97 | 88 | 1009.1 |
| 20260505213023 | 11 | 304 | 4.8 | 16.1 | 0.71 | 2.92 | 2.87 | 88 | 1009.3 |
| 20260505211526 | 12 | 234 | 0.0 | 1.6 | 0.71 | 2.84 | 2.84 | 88 | 1009.4 |
| 20260505210017 | 12 | 288 | 0.0 | 0.0 | 0.56 | 2.74 | 2.69 | 87 | 1009.3 |
| 20260505204516 | 13 | 220 | 0.0 | 11.3 | 0.46 | 2.64 | 2.59 | 87 | 1009.5 |
| 20260505203016 | 14 | 119 | 0.0 | 0.0 | 0.00 | 2.18 | 2.13 | 86 | 1009.3 |
| 20260505201515 | 14 | 184 | 0.0 | 0.0 | 0.00 | 2.18 | 2.13 | 86 | 1009.0 |
| 20260505200014 | 14 | 198 | 0.0 | 0.0 | 0.00 | 2.18 | 2.13 | 86 | 1008.6 |
| 20260505194515 | 14 | 198 | 0.0 | 0.0 | 0.00 | 2.18 | 2.13 | 86 | 1008.5 |
| 20260505193015 | 14 | 198 | 0.0 | 0.0 | 0.00 | 2.18 | 2.13 | 86 | 1008.4 |
| 20260505191514 | 14 | 198 | 0.0 | 0.0 | 0.00 | 2.18 | 2.13 | 86 | 1008.1 |
| 20260505190013 | 15 | 198 | 0.0 | 0.0 | 0.00 | 2.18 | 2.13 | 84 | 1007.9 |
| 20260505184519 | 15 | 198 | 0.0 | 0.0 | 0.00 | 2.18 | 2.13 | 83 | 1007.5 |
| 20260505183016 | 15 | 198 | 0.0 | 0.0 | 0.00 | 2.18 | 2.13 | 83 | 1007.4 |
| 20260505181511 | 15 | 198 | 0.0 | 0.0 | 0.00 | 2.18 | 2.13 | 82 | 1007.6 |
| 20260505180012 | 15 | 198 | 0.0 | 0.0 | 0.00 | 2.18 | 2.13 | 81 | 1007.5 |
| 20260505174510 | 15 | 198 | 0.0 | 0.0 | 0.00 | 2.18 | 2.13 | 81 | 1007.4 |
| 20260505173010 | 15 | 198 | 0.0 | 0.0 | 0.00 | 2.18 | 2.13 | 81 | 1007.3 |
| 20260505171510 | 16 | 39 | 0.0 | 3.2 | 0.03 | 2.18 | 2.13 | 81 | 1007.3 |
| 20260505170011 | 16 | 90 | 0.0 | 0.0 | 0.05 | 2.18 | 2.13 | 84 | 1007.1 |
| 20260505164506 | 16 | 59 | 0.0 | 6.4 | 0.05 | 2.18 | 2.13 | 83 | 1007.7 |